Location: *
(46.3500°N, 10.9000°E)
Time: 13:13:32
(UTC+00:00)

X-37B - Visible Passes

Search period start: 08 March 2021 00:00
Search period end: 18 March 2021 00:00
Orbit: 383 x 391 km, 45.0° (Epoch: 27 February)

Date Brightness Start Highest point End Pass type
(mag) Time Alt. Az. Time Alt. Az. Time Alt. Az.
10 Mar 3.2 18:41:09 10° S 18:41:13 10° S 18:41:13 10° S visible
11 Mar 3.0 19:17:32 10° SW 19:18:23 16° SSW 19:18:23 16° SSW visible
12 Mar 2.3 18:19:47 10° SSW 18:22:11 20° SSE 18:23:05 18° SE visible
12 Mar 3.8 19:55:17 10° WSW 19:55:23 11° WSW 19:55:23 11° WSW visible
13 Mar 1.2 18:57:05 10° SW 18:59:58 41° S 18:59:58 41° S visible
14 Mar 1.8 17:59:02 10° SW 18:01:53 29° SSE 18:04:28 12° E visible
14 Mar 2.5 19:35:06 10° WSW 19:36:45 28° WSW 19:36:45 28° WSW visible
15 Mar 0.8 18:36:48 10° WSW 18:39:57 56° SSE 18:41:10 32° ESE visible
15 Mar 4.0 20:13:17 10° W 20:13:28 11° W 20:13:28 11° W visible
16 Mar 0.8 19:14:56 10° W 19:17:49 63° SW 19:17:49 63° SW visible
17 Mar 0.7 18:16:36 10° WSW 18:19:47 67° S 18:22:08 17° E visible
17 Mar 3.1 19:53:10 10° W 19:54:25 21° W 19:54:25 21° W visible
